Cauterets, France 16 day weather forecast

Slopes altitude range 1400 m - 2500m

Number of lifts: 11 Pistes: 36km

In some cases the lift and piste totals shown are for the ski domain (e.g. Three Valleys) rather than individual resort (e.g. Courchevel)

Overview

The 16 day weather forecast is fully updated 4 times every day.

    • Wed 26 JUN 2019
    • Wed 26
    • 21C 31C
    • Thu 27 JUN 2019
    • Thu 27
    • 22C 33C
    • Fri 28 JUN 2019
    • Fri 28
    • 22C 34C
    • Sat 29 JUN 2019
    • Sat 29
    • 23C 35C
    • Sun 30 JUN 2019
    • Sun 30
    • 23C 34C
    • Mon 01 JUL 2019
    • Mon 01
    • 23C 32C
    • Tue 02 JUL 2019
    • Tue 02
    • 20C 28C
    • Wed 03 JUL 2019
    • Wed 03
    • 20C 29C
    • Thu 04 JUL 2019
    • Thu 04
    • 19C 29C
    • Fri 05 JUL 2019
    • Fri 05
    • 17C 22C
    • Sat 06 JUL 2019
    • Sat 06
    • 16C 22C
    • Sun 07 JUL 2019
    • Sun 07
    • 21C 31C
    • Mon 08 JUL 2019
    • Mon 08
    • 18C 27C
    • Tue 09 JUL 2019
    • Tue 09
    • 15C 18C
    • Wed 10 JUL 2019
    • Wed 10
    • 14C 18C
    • Thu 11 JUL 2019
    • Thu 11
    • 14C 16C

Date:

Time Type 0°C level Temp Chill Snow Cloud Speed Gust Dir Press
3:00 4616m 17°C 17_4 0cm 0% 4mph 5mph 1018mB
6:00 4595m 17°C 17_4 0cm 0% 4mph 5mph 1018mB
9:00 4732m 21°C 21_8 0cm 0% 8mph 20mph 1018mB
12:00 4774m 31°C 31_15 0cm 0% 15mph 23mph 1018mB
15:00 4769m 31°C 31_16 0cm 0% 16mph 23mph 1016mB
18:00 4748m 31°C 31_7 0cm 0% 7mph 14mph 1017mB
21:00 4718m 20°C 20_3 0cm 0% 3mph 3mph 1019mB
0:00 4672m 19°C 19_5 0cm 0% 5mph 6mph 1020mB
3:00 4675m 19°C 19_5 0cm 39% 5mph 5mph 1020mB
6:00 4704m 19°C 19_4 0cm 21% 4mph 4mph 1021mB
9:00 4705m 22°C 22_3 0cm 1% 3mph 6mph 1020mB
12:00 4664m 33°C 33_6 0cm 8% 6mph 12mph 1019mB
15:00 4687m 34°C 34_7 0cm 69% 7mph 11mph 1018mB
18:00 4746m 34°C 34_3 0cm 69% 3mph 4mph 1017mB
21:00 4761m 22°C 22_4 0cm 100% 4mph 5mph 1019mB
0:00 4670m 21°C 21_6 0cm 100% 6mph 6mph 1019mB
3:00 4636m 20°C 20_5 0cm 12% 5mph 6mph 1019mB
6:00 4686m 19°C 19_5 0cm 6% 5mph 6mph 1019mB
9:00 4698m 22°C 22_2 0cm 0% 2mph 2mph 1018mB
12:00 4634m 34°C 34_5 0cm 0% 5mph 5mph 1016mB
15:00 4561m 35°C 35_4 0cm 7% 4mph 3mph 1015mB
18:00 4564m 35°C 35_4 0cm 4% 4mph 7mph 1014mB
21:00 4656m 22°C 22_6 0cm 0% 6mph 7mph 1016mB
0:00 4670m 21°C 21_5 0cm 0% 5mph 5mph 1017mB
3:00 4551m 20°C 20_6 0cm 0% 6mph 6mph 1016mB
6:00 4516m 20°C 20_6 0cm 0% 6mph 6mph 1016mB
9:00 4572m 23°C 23_2 0cm 0% 2mph 5mph 1016mB
12:00 4459m 35°C 35_4 0cm 0% 4mph 3mph 1015mB
15:00 4535m 35°C 35_6 0cm 0% 6mph 4mph 1015mB
18:00 4553m 35°C 35_2 0cm 3% 2mph 3mph 1015mB
21:00 4510m 22°C 22_3 0cm 0% 3mph 3mph 1018mB
0:00 4558m 21°C 21_4 0cm 0% 4mph 5mph 1019mB
3:00 4604m 21°C 21_5 0cm 0% 5mph 6mph 1018mB
6:00 4588m 20°C 20_4 0cm 0% 4mph 5mph 1019mB
9:00 4615m 23°C 23_4 0cm 0% 4mph 3mph 1019mB
12:00 4609m 34°C 34_4 0cm 0% 4mph 4mph 1017mB
15:00 4534m 34°C 34_5 0cm 0% 5mph 3mph 1016mB
18:00 4542m 34°C 34_4 0cm 0% 4mph 6mph 1016mB
21:00 4704m 21°C 21_5 0cm 1% 5mph 6mph 1018mB
0:00 4632m 21°C 21_4 0cm 0% 4mph 5mph 1018mB
3:00 4565m 20°C 20_4 0cm 0% 4mph 5mph 1018mB
6:00 4608m 20°C 20_3 0cm 7% 3mph 4mph 1018mB
9:00 4586m 23°C 23_4 0cm 0% 4mph 4mph 1018mB
12:00 4537m 32°C 32_5 0cm 0% 5mph 6mph 1017mB
15:00 4380m 33°C 33_7 0cm 0% 7mph 5mph 1015mB
18:00 4350m 33°C 33_8 0cm 0% 8mph 13mph 1016mB
21:00 4532m 19°C 19_3 0cm 40% 3mph 3mph 1018mB
0:00 4432m 18°C 18_4 0cm 23% 4mph 4mph 1018mB
3:00 4305m 17°C 17_3 0cm 12% 3mph 3mph 1017mB
6:00 4280m 17°C 17_2 0cm 33% 2mph 2mph 1017mB
9:00 4327m 20°C 20_4 0cm 100% 4mph 5mph 1016mB
12:00 4300m 28°C 28_6 0cm 54% 6mph 5mph 1015mB
15:00 4251m 29°C 29_7 0cm 0% 7mph 6mph 1013mB
18:00 4123m 29°C 29_9 0cm 0% 9mph 12mph 1014mB
21:00 4324m 18°C 18_2 0cm 0% 2mph 3mph 1015mB
0:00 4207m 17°C 17_5 0cm 1% 5mph 6mph 1015mB
3:00 4161m 17°C 17_4 0cm 1% 4mph 4mph 1014mB
6:00 4124m 16°C 16_2 0cm 4% 2mph 2mph 1015mB
9:00 4090m 20°C 20_4 0cm 39% 4mph 5mph 1014mB
12:00 4153m 29°C 29_5 0cm 19% 5mph 6mph 1013mB
15:00 4137m 27°C 27_6 0cm 33% 6mph 7mph 1012mB
18:00 4262m 27°C 27_2 0cm 36% 2mph 3mph 1012mB
21:00 4280m 18°C 18_11 0cm 0% 11mph 11mph 1014mB
0:00 4201m 17°C 17_8 0cm 0% 8mph 10mph 1014mB
3:00 4113m 18°C 18_9 0cm 0% 9mph 11mph 1014mB
6:00 4155m 18°C 18_9 0cm 9% 9mph 11mph 1015mB
9:00 4160m 19°C 19_1 0cm 0% 1mph 4mph 1015mB
12:00 4160m 29°C 29_6 0cm 8% 6mph 4mph 1014mB
15:00 4249m 28°C 28_5 0cm 60% 5mph 6mph 1013mB
18:00 4361m 28°C 28_4 0cm 35% 4mph 5mph 1013mB
21:00 4447m 17°C 17_7 0cm 0% 7mph 8mph 1016mB
0:00 4349m 15°C 15_5 0cm 0% 5mph 7mph 1017mB
3:00 4347m 15°C 15_5 0cm 0% 5mph 8mph 1017mB
6:00 4247m 15°C 15_2 0cm 0% 2mph 5mph 1018mB
9:00 4235m 17°C 17_5 0cm 0% 5mph 4mph 1018mB
12:00 4229m 22°C 22_6 0cm 16% 6mph 5mph 1018mB
15:00 4309m 22°C 22_6 0cm 46% 6mph 5mph 1017mB
18:00 4373m 22°C 22_4 0cm 55% 4mph 5mph 1018mB
21:00 4363m 16°C 16_1 0cm 92% 1mph 3mph 1021mB
0:00 4580m 15°C 15_1 0cm 74% 1mph 2mph 1021mB
Afternoon 0.671875mm 0.1875 4555m 22°C 22_6 0cm 62% 6mph 6mph 1019mB
Morning 0.890625mm 1.125 4729m 17°C 17_9 0cm 65% 9mph 10mph 1017mB
Afternoon 0.90625mm 0 4604m 31°C 31_3 0cm 0% 3mph 9mph 1014mB
Morning 1.01562mm 0.625 4561m 17°C 17_12 0cm 84% 12mph 14mph 1015mB
Afternoon 1.04167mm 0 4131m 27°C 27_6 0cm 2% 6mph 10mph 1015mB
Morning 1.17188mm 0.25 4071m 14°C 14_2 0cm 51% 2mph 4mph 1017mB
Afternoon 1.30208mm 1.125 4049m 18°C 18_6 0cm 64% 6mph 5mph 1017mB
Morning 2.02604mm 1.5 4130m 13°C 13_1 0cm 100% 1mph 4mph 1018mB
Afternoon 2.17188mm 0.625 4101m 18°C 18_6 0cm 68% 6mph 6mph 1016mB
Morning 2.53125mm 2.0625 4114m 14°C 14_3 0cm 79% 3mph 4mph 1016mB
Afternoon 2.90625mm 1.0625 3973m 16°C 16_7 0cm 93% 7mph 5mph 1014mB
Morning 3.02604mm 0 4065m 12°C 12_1 0cm 78% 1mph 2mph 1013mB

16 day outlook at a glance

Forecast issued: 6/26/2019 7:49:25 AM

Chat

Your comments and questions. In a resort? Let us know what it's like!


Characters left 250

For terms and conditions see Readers Comments on the Cookie and privacy policy page.